This demonstration page uses our WeatherBlox Daily Observations layout. Learn more.

Hourly Observations for March 24, 2016

Temp ( °F °C ) Dew Point ( °F °C ) Humidity (%) Winds ( mph kmh ) Pressure ( in mb ) Visibility ( mi km ) Precip ( " mm )
12:15 am 00:15 Cloudy 30 -1 29 -1.9 94 94 N 30 48 29.91 1013 N/A 0 0
12:35 am 00:35 Cloudy 30 -1.2 28 -2.1 94 94 N 28 44 29.91 1013 N/A 0.01 0.254
12:55 am 00:55 Cloudy 30 -1.2 28 -2.1 94 94 N 30 48 29.94 1014 N/A 0.01 0.254
1:15 am 01:15 Cloudy 30 -1.3 28 -2.3 93 93 N 31 50 29.94 1014 N/A 0 0
1:35 am 01:35 Cloudy 29 -1.5 28 -2.5 93 93 N 30 48 29.97 1015 N/A 0 0
1:55 am 01:55 undefined 29 -1.5 27 -2.7 92 92 N 25 41 29.97 1015 N/A 0 0
2:15 am 02:15 Cloudy 30 -1 25 -3.9 81 81 NNW 26 43 29.97 1015 N/A 0 0
2:35 am 02:35 Cloudy 30 -1.1 24 -4.5 78 78 NNW 25 41 30 1016 N/A 0 0
2:55 am 02:55 undefined 30 -1.2 23 -5.1 75 75 NNW 24 39 30 1016 N/A 0 0
3:15 am 03:15 Mostly Cloudy 30 -1.1 22 -5.6 72 72 NNW 22 35 30 1016 N/A 0 0
3:35 am 03:35 Mostly Cloudy 30 -1.2 21 -6.1 70 70 NNW 22 35 30 1016 N/A 0 0
3:55 am 03:55 Partly Cloudy 29 -1.6 20 -6.6 69 69 N 22 35 30.03 1017 N/A 0 0
4:15 am 04:15 Clear 28 -2.1 19 -7 69 69 NNW 20 31 30.03 1017 N/A 0 0
4:35 am 04:35 Clear 28 -2.3 19 -7.5 68 68 NNW 18 30 30.06 1018 N/A 0 0
4:55 am 04:55 Clear 28 -2.4 18 -8 66 66 NNW 21 33 30.06 1018 N/A 0 0
5:15 am 05:15 Clear 27 -2.8 17 -8.5 65 65 N 21 33 30.06 1018 N/A 0 0
5:35 am 05:35 Clear 26 -3.1 16 -9.1 64 64 N 17 28 30.06 1018 N/A 0 0
5:55 am 05:55 Clear 26 -3.5 15 -9.3 65 65 NNW 17 28 30.06 1018 N/A 0 0
6:15 am 06:15 Clear 26 -3.6 15 -9.7 63 63 NNW 16 26 30.09 1019 N/A 0 0
6:35 am 06:35 Clear 25 -4 14 -9.9 64 64 N 15 24 30.12 1020 N/A 0 0
6:55 am 06:55 Clear 24 -4.2 14 -10 64 64 NNW 16 26 30.12 1020 N/A 0 0
7:15 am 07:15 Clear 23 -5 13 -10.4 66 66 NNW 13 20 30.12 1020 N/A 0 0
7:35 am 07:35 Sunny 22 -5.5 13 -10.4 69 69 NNW 10 17 30.12 1020 N/A 0 0
7:55 am 07:55 Sunny 22 -5.5 13 -10.5 68 68 NNW 9 15 30.12 1020 N/A 0 0
8:15 am 08:15 Sunny 21 -5.9 13 -10.5 70 70 NW 8 13 30.15 1021 N/A 0 0
8:35 am 08:35 Sunny 23 -4.9 14 -10.1 67 67 NNW 8 13 30.15 1021 N/A 0 0
8:55 am 08:55 Sunny 24 -4.5 14 -9.9 66 66 NW 9 15 30.15 1021 N/A 0 0
9:15 am 09:15 Sunny 24 -4.2 15 -9.3 68 68 NNW 6 9 30.15 1021 N/A 0 0
9:35 am 09:35 Sunny 26 -3.4 16 -9 66 66 NW 7 11 30.12 1020 N/A 0 0
9:55 am 09:55 Sunny 27 -2.6 17 -8.4 65 65 NNW 8 13 30.12 1020 N/A 0 0
10:15 am 10:15 Sunny 29 -1.7 17 -8.3 61 61 NW 8 13 30.12 1020 N/A 0 0
10:35 am 10:35 Sunny 30 -1 17 -8.2 59 59 NW 10 17 30.12 1020 N/A 0 0
10:55 am 10:55 Sunny 31 -0.3 19 -7.4 59 59 NW 8 13 30.09 1019 N/A 0 0
11:15 am 11:15 Sunny 33 0.5 18 -7.7 55 55 NNW 10 17 30.12 1020 10 16.0934 0 0
11:35 am 11:35 Sunny 34 1.1 19 -7 55 55 NNW 13 20 30.12 1020 10 16.0934 0 0
11:55 am 11:55 Sunny 35 1.6 19 -7 53 53 NW 12 19 30.12 1020 10 16.0934 0 0
12:15 pm 12:15 Sunny 36 2.1 20 -6.4 54 54 NNW 10 17 30.12 1020 10 16.0934 0 0
12:35 pm 12:35 Sunny 37 2.6 19 -7.5 48 48 NNW 14 22 30.12 1020 10 16.0934 0 0
12:55 pm 12:55 Sunny 37 3 20 -6.9 49 49 N 14 22 30.09 1019 10 16.0934 0 0
1:15 pm 13:15 Sunny 38 3.5 21 -6.2 49 49 N 14 22 30.09 1019 10 16.0934 0 0
1:35 pm 13:35 Sunny 39 3.8 20 -6.4 48 48 N 12 19 30.09 1019 10 16.0934 0 0
1:55 pm 13:55 Sunny 40 4.2 21 -6.3 47 47 N 13 20 30.06 1018 10 16.0934 0 0
2:15 pm 14:15 Sunny 40 4.6 22 -5.3 49 49 N 10 17 30.06 1018 10 16.0934 0 0
2:35 pm 14:35 Sunny 41 5.1 23 -4.8 49 49 N 9 15 30.06 1018 10 16.0934 0 0
2:55 pm 14:55 Sunny 42 5.7 22 -5.3 45 45 N 5 7 30.06 1018 10 16.0934 0 0
3:15 pm 15:15 Sunny 43 5.9 22 -5.3 45 45 NNW 6 9 30.06 1018 10 16.0934 0 0
3:35 pm 15:35 Sunny 44 6.4 22 -5.7 42 42 NNW 6 9 30.03 1017 10 16.0934 0 0
3:55 pm 15:55 Sunny 45 7.1 24 -4.5 44 44 N 6 9 30 1016 10 16.0934 0 0
4:15 pm 16:15 Sunny 45 7.1 23 -4.9 43 43 W 7 11 30 1016 10 16.0934 0 0
4:35 pm 16:35 Sunny 45 7.3 23 -5 42 42 Calm 30 1016 10 16.0934 0 0
4:55 pm 16:55 Sunny 46 7.7 22 -5.4 39 39 WNW 6 9 30 1016 10 16.0934 0 0
5:15 pm 17:15 Sunny 46 7.6 22 -5.8 38 38 Calm 30 1016 10 16.0934 0 0
5:35 pm 17:35 Sunny 46 7.9 23 -5.1 40 40 NNW 5 7 30 1016 10 16.0934 0 0
5:55 pm 17:55 Sunny 46 7.6 23 -5.2 40 40 NNW 5 7 29.97 1015 10 16.0934 0 0
6:15 pm 18:15 Sunny 46 7.7 23 -4.8 41 41 Calm 29.97 1015 10 16.0934 0 0
6:35 pm 18:35 Sunny 45 7.4 25 -4 45 45 E 7 11 29.97 1015 10 16.0934 0 0
6:55 pm 18:55 Sunny 42 5.8 25 -3.7 51 51 ESE 8 13 29.97 1015 10 16.0934 0 0
7:15 pm 19:15 Sunny 41 5.1 26 -3.6 54 54 ESE 8 13 30 1016 10 16.0934 0 0
7:35 pm 19:35 Sunny 40 4.2 26 -3.1 59 59 ESE 8 13 30 1016 10 16.0934 0 0
7:55 pm 19:55 Clear 36 2.4 26 -3.1 67 67 ESE 8 13 30 1016 10 16.0934 0 0
8:15 pm 20:15 Clear 35 1.7 26 -3.5 69 69 SE 9 15 30.03 1017 10 16.0934 0 0
8:35 pm 20:35 Clear 33 0.7 26 -3.5 74 74 SE 8 13 30.03 1017 10 16.0934 0 0
8:55 pm 20:55 Clear 32 0.1 25 -4 74 74 SE 9 15 30.03 1017 10 16.0934 0 0
9:15 pm 21:15 Clear 32 0 24 -4.3 73 73 SE 7 11 30.03 1017 10 16.0934 0 0
9:35 pm 21:35 Clear 32 0 24 -4.6 71 71 S 5 7 30.03 1017 10 16.0934 0 0
9:55 pm 21:55 Clear 31 -0.5 23 -5 72 72 SSE 6 9 30.03 1017 10 16.0934 0 0
10:15 pm 22:15 Clear 30 -1.1 23 -5 75 75 SSE 5 7 30.06 1018 10 16.0934 0 0
10:35 pm 22:35 Clear 30 -0.9 23 -5.1 73 73 S 6 9 30.03 1017 10 16.0934 0 0
10:55 pm 22:55 Clear 30 -0.9 23 -5.2 73 73 S 6 9 30.03 1017 10 16.0934 0 0
11:15 pm 23:15 Clear 30 -1.1 22 -5.5 72 72 S 8 13 30.06 1018 10 16.0934 0 0
11:35 pm 23:35 Clear 30 -0.9 22 -5.6 71 71 S 9 15 30 1016 10 16.0934 0 0
11:55 pm 23:55 Clear 31 -0.6 22 -5.7 69 69 S 8 13 30 1016 10 16.0934 0 0

Powered by AerisWeather